Погода в Дебрецене

Венгрия     47°31′17″N   21°37′20″E
темп.,
°C
ветер,
м/с
пор.,
м/с
влажн.,
%
обл.,
%
осадки,
мм/ч
давл.,
гПа
погр.,
м
20 июня, вс
вс2023:00+19в33775 0.0 101443
02:00+18всв33793 0.0 101438
05:00+16всв35860 0.0 101382
08:00+21вюв34730 0.0 1014380
11:00+26в335020 0.0 10131119
14:00+28всв33425 0.0 10121673
17:00+28ссв12415 0.0 10111691
20:00+24с11595 0.0 101011
21 июня, пн
пн2123:00+20ююз11723 0.0 101011
02:00+19св11723 0.0 101011
05:00+18юв22765 0.0 101011
08:00+23ююз22647 0.0 1010358
11:00+28ююз12500 0.0 10101056
14:00+31ю01420 0.0 10081863
17:00+31юв123911 0.0 10072167
20:00+26юв33600 0.0 100837
22 июня, вт
вт2223:00+23ююв35675 0.0 100879
02:00+20ююв238149 0.4 100934
05:00+20юв348199 0.0 100966
08:00+25юв2365100 0.1 1010344
11:00+29ююв3451100 0.0 10101162
14:00+31ююв3445100 0.0 10101787
17:00+31ююв234596 0.0 10091757
20:00+27в226119 0.0 101012
23 июня, ср
ср2323:00+24в337141 0.0 101134
02:00+22в11781 0.0 101111
05:00+21в22820 0.0 101213
08:00+26ююв33640 0.0 1013298
11:00+31ююз33472 0.0 10131002
14:00+34юз46360 0.0 10122467
17:00+34зюз56300 0.0 10122025
20:00+26з35640 0.0 101492
24 июня, чт
чт2423:00+23з34760 0.0 101462
02:00+21з00870 0.0 101511
05:00+20ююз11905 0.0 101511
08:00+26вюв00690 0.0 1016314
11:00+31в22500 0.0 1016889
14:00+34в21360 0.0 10151501
17:00+35в22340 0.0 10141744
20:00+29вюв46540 0.0 101374